VE2YMM-13 Weather Reports


Display with metric or nautical units.
time (UTC)temp
F
wind
direction
speed
MPH
gust
MPH
rain 1hr
in
rain 24hr
in
rain mn
in
humidity
%
barometer
mb
20260507060116 45 248 4.0 6.0 0.00 0.24 0.00 86 1007.7
20260507055617 45 248 4.0 7.0 0.00 0.24 0.00 86 1007.7
20260507055117 45 248 3.0 5.0 0.00 0.24 0.00 86 1007.7
20260507054617 45 248 2.0 3.0 0.00 0.24 0.00 86 1007.8
20260507054137 45 248 2.0 3.0 0.00 0.24 0.00 86 1007.8
20260507053616 45 225 2.0 5.0 0.00 0.24 0.00 86 1007.8
20260507053117 45 248 3.0 6.0 0.00 0.24 0.00 86 1007.9
20260507052617 45 225 2.0 4.0 0.00 0.24 0.00 86 1007.9
20260507052116 45 225 2.0 4.0 0.00 0.24 0.00 86 1007.9
20260507051617 45 248 1.0 2.0 0.00 0.24 0.00 86 1007.8
20260507051117 45 248 4.0 6.0 0.00 0.24 0.00 86 1008.0
20260507050616 45 203 2.0 4.0 0.00 0.24 0.00 86 1008.1
20260507050116 45 248 4.0 7.0 0.00 0.24 0.00 86 1008.2
20260507045616 45 225 2.0 4.0 0.00 0.24 0.00 86 1008.3
20260507045116 45 225 3.0 5.0 0.00 0.24 0.00 86 1008.4
20260507044617 45 225 1.0 3.0 0.00 0.24 0.00 86 1008.4
20260507044117 45 225 2.0 3.0 0.00 0.24 0.00 86 1008.5
20260507043616 45 225 2.0 6.0 0.00 0.24 0.00 85 1008.5
20260507043116 46 225 2.0 3.0 0.00 0.24 0.00 85 1008.6
20260507042616 46 248 3.0 7.0 0.00 0.24 0.00 85 1008.6
20260507042116 46 225 2.0 4.0 0.00 0.24 0.00 85 1008.5
20260507041637 46 248 4.0 7.0 0.00 0.24 0.00 85 1008.6
20260507041116 46 225 4.0 7.0 0.00 0.24 0.00 85 1008.6
20260507040616 46 248 4.0 6.0 0.00 0.24 0.00 85 1008.7
20260507040116 46 248 5.0 9.0 0.00 0.24 0.00 85 1008.7
20260507035616 46 270 3.0 5.0 0.00 0.24 0.24 85 1008.7
20260507035116 46 225 4.0 5.0 0.00 0.24 0.24 85 1008.7
20260507034616 46 225 5.0 8.0 0.00 0.24 0.24 85 1008.8
20260507034117 46 248 3.0 5.0 0.00 0.24 0.24 85 1008.8
20260507033616 46 293 3.0 8.0 0.00 0.24 0.24 85 1008.9
20260507033116 46 248 3.0 4.0 0.00 0.24 0.24 85 1008.9
20260507032617 46 248 3.0 4.0 0.00 0.24 0.24 85 1008.9
20260507032117 46 248 2.0 4.0 0.00 0.24 0.24 84 1008.9
20260507031616 46 270 2.0 3.0 0.00 0.24 0.24 84 1008.9
20260507031116 46 225 3.0 5.0 0.00 0.24 0.24 84 1009.0
20260507030616 46 248 3.0 4.0 0.00 0.24 0.24 83 1009.0
20260507030117 46 248 2.0 3.0 0.00 0.24 0.24 83 1009.0
20260507025618 46 248 2.0 3.0 0.00 0.24 0.24 83 1009.0
20260507025117 46 203 2.0 4.0 0.00 0.24 0.24 82 1009.0
20260507024616 46 248 3.0 4.0 0.00 0.24 0.24 82 1009.1
20260507024116 46 248 3.0 4.0 0.00 0.24 0.24 82 1009.1
20260507023616 46 248 3.0 4.0 0.00 0.24 0.24 81 1009.1
20260507023116 46 225 3.0 5.0 0.00 0.24 0.24 81 1009.1
20260507022637 47 225 4.0 5.0 0.00 0.24 0.24 81 1009.1
20260507022116 47 248 1.0 2.0 0.00 0.24 0.24 81 1009.2
20260507021617 47 248 3.0 4.0 0.00 0.24 0.24 80 1009.2
20260507021117 47 248 3.0 4.0 0.00 0.24 0.24 80 1009.2
20260507020616 47 248 1.0 2.0 0.00 0.24 0.24 80 1009.3
20260507020136 47 225 3.0 6.0 0.00 0.24 0.24 80 1009.3
20260507015616 47 225 4.0 5.0 0.00 0.24 0.24 79 1009.3
20260507015117 47 248 3.0 5.0 0.00 0.24 0.24 79 1009.4
20260507014617 47 248 4.0 6.0 0.00 0.24 0.24 79 1009.4
20260507014116 47 225 2.0 4.0 0.00 0.24 0.24 79 1009.5
20260507013617 47 248 3.0 4.0 0.00 0.24 0.24 79 1009.6
20260507013117 47 225 3.0 4.0 0.00 0.24 0.24 79 1009.6
20260507012616 47 248 3.0 4.0 0.00 0.24 0.24 78 1009.5
20260507012116 47 225 3.0 5.0 0.00 0.24 0.24 78 1009.4
20260507011616 47 225 4.0 8.0 0.00 0.24 0.24 78 1009.4
20260507010616 47 248 1.0 2.0 0.00 0.24 0.24 77 1009.4
20260507010116 47 225 3.0 5.0 0.00 0.24 0.24 77 1009.3
20260507005617 47 225 5.0 8.0 0.00 0.24 0.24 77 1009.3
20260507005116 47 248 4.0 7.0 0.00 0.24 0.24 77 1009.3
20260507004637 47 225 3.0 7.0 0.00 0.24 0.24 77 1009.2
20260507004116 47 248 3.0 5.0 0.00 0.24 0.24 77 1009.1
20260507003616 48 225 2.0 4.0 0.00 0.24 0.24 77 1009.1
20260507003117 48 248 3.0 7.0 0.00 0.24 0.24 77 1009.1
20260507002617 48 248 2.0 3.0 0.00 0.24 0.24 77 1009.0
20260507002116 48 248 3.0 4.0 0.00 0.24 0.24 77 1008.9
20260507001616 48 0.0 0.0 0.00 0.24 0.24 76 1008.6
20260507001137 48 225 2.0 3.0 0.00 0.24 0.24 77 1008.7
20260507000636 48 0.0 1.0 0.00 0.24 0.24 76 1008.7
20260507000116 48 225 2.0 4.0 0.00 0.24 0.24 76 1008.7
20260506235616 48 270 2.0 3.0 0.00 0.24 0.24 76 1008.7
20260506235117 48 293 2.0 4.0 0.00 0.24 0.24 76 1008.7
20260506234616 48 270 3.0 6.0 0.00 0.24 0.24 77 1008.7
20260506234116 48 225 3.0 5.0 0.00 0.24 0.24 78 1008.7
20260506233616 48 270 3.0 4.0 0.00 0.24 0.24 77 1008.7
20260506233116 48 248 3.0 5.0 0.00 0.24 0.24 77 1008.7
20260506232615 48 270 3.0 4.0 0.00 0.24 0.24 76 1008.7
20260506232136 48 248 6.0 8.0 0.00 0.24 0.24 76 1008.7
20260506231616 48 248 5.0 8.0 0.00 0.24 0.24 75 1008.6
20260506231115 48 248 2.0 4.0 0.00 0.24 0.24 75 1008.4
20260506230616 48 248 2.0 3.0 0.00 0.24 0.24 75 1008.4
20260506230115 48 270 4.0 7.0 0.00 0.24 0.24 75 1008.4
20260506225616 48 248 4.0 7.0 0.00 0.24 0.24 75 1008.5
20260506225136 48 248 2.0 6.0 0.00 0.24 0.24 74 1008.5
20260506224616 48 248 2.0 3.0 0.00 0.24 0.24 74 1008.5
20260506224136 48 248 3.0 5.0 0.00 0.24 0.24 73 1008.7
20260506223636 48 270 4.0 6.0 0.00 0.24 0.24 73 1008.5
20260506223115 48 248 3.0 4.0 0.00 0.24 0.24 73 1008.5
20260506222616 48 248 4.0 6.0 0.00 0.24 0.24 72 1008.6
20260506222118 49 225 4.0 6.0 0.00 0.24 0.24 71 1008.7
20260506221618 49 248 6.0 9.0 0.00 0.24 0.24 71 1008.8
20260506221118 49 270 3.0 4.0 0.00 0.24 0.24 70 1008.7
20260506220617 49 248 4.0 8.0 0.00 0.24 0.24 70 1008.7
20260506220118 48 225 4.0 7.0 0.00 0.24 0.24 71 1008.7
20260506215616 48 293 4.0 7.0 0.00 0.24 0.24 70 1008.7
20260506215117 49 270 6.0 8.0 0.00 0.24 0.24 70 1008.6
20260506214618 49 225 4.0 6.0 0.00 0.24 0.24 73 1008.7
20260506214118 49 293 2.0 3.0 0.00 0.24 0.24 73 1008.7
20260506213617 49 293 3.0 4.0 0.00 0.24 0.24 74 1008.7
20260506213117 48 293 2.0 2.0 0.00 0.24 0.24 74 1008.7
20260506212617 48 270 3.0 4.0 0.00 0.24 0.24 74 1008.6
20260506212117 47 248 3.0 4.0 0.00 0.24 0.24 74 1008.7
20260506211618 47 248 3.0 5.0 0.00 0.24 0.24 75 1008.6
20260506211117 48 248 3.0 4.0 0.00 0.24 0.24 75 1008.6
20260506210617 48 270 3.0 4.0 0.00 0.24 0.24 77 1008.7
20260506210118 48 270 3.0 6.0 0.00 0.24 0.24 77 1008.8
20260506205617 48 270 2.0 3.0 0.00 0.24 0.24 77 1008.9
20260506205119 48 248 5.0 8.0 0.00 0.24 0.24 76 1009.0
20260506204618 47 225 3.0 4.0 0.00 0.24 0.24 76 1009.0
20260506204117 47 270 3.0 5.0 0.00 0.24 0.24 77 1008.9
20260506203618 47 225 3.0 4.0 0.00 0.24 0.24 77 1008.8
20260506203118 47 270 5.0 7.0 0.00 0.24 0.24 76 1008.8
20260506202617 47 270 2.0 3.0 0.00 0.24 0.24 77 1008.8
20260506202118 47 270 4.0 7.0 0.00 0.24 0.24 77 1009.0
20260506201617 47 270 2.0 3.0 0.00 0.24 0.24 78 1009.0
20260506201117 47 270 4.0 8.0 0.00 0.24 0.24 79 1008.9
20260506200617 47 225 3.0 4.0 0.00 0.24 0.24 79 1009.1
20260506200117 47 248 3.0 6.0 0.00 0.24 0.24 79 1009.1
20260506195617 47 270 3.0 5.0 0.00 0.24 0.24 81 1008.9
20260506195117 47 270 3.0 5.0 0.00 0.24 0.24 81 1009.0
20260506194618 47 225 2.0 3.0 0.00 0.24 0.24 81 1009.1
20260506194117 47 248 2.0 4.0 0.00 0.24 0.24 80 1009.1
20260506193637 47 270 2.0 3.0 0.00 0.24 0.24 80 1009.2
20260506193117 47 248 4.0 6.0 0.00 0.24 0.24 80 1009.2
20260506192737 47 248 2.0 4.0 0.00 0.24 0.24 80 1009.3
20260506192137 47 248 3.0 4.0 0.00 0.24 0.24 79 1009.3
20260506191638 47 270 3.0 6.0 0.00 0.24 0.24 80 1009.3
20260506191117 47 270 3.0 4.0 0.00 0.24 0.24 80 1009.3
20260506190617 47 248 3.0 4.0 0.00 0.24 0.24 80 1009.3
20260506190118 47 270 3.0 4.0 0.00 0.24 0.24 79 1009.3
20260506185617 47 270 2.0 3.0 0.00 0.24 0.24 79 1009.4
20260506185118 47 248 4.0 5.0 0.00 0.24 0.24 80 1009.3
20260506184617 47 248 3.0 5.0 0.00 0.24 0.24 79 1009.3
20260506184117 47 270 3.0 4.0 0.00 0.24 0.24 80 1009.3
20260506183617 47 270 3.0 4.0 0.00 0.24 0.24 81 1009.1
20260506183117 47 225 1.0 2.0 0.00 0.24 0.24 81 1009.1
20260506182617 47 180 1.0 1.0 0.00 0.24 0.24 81 1009.1
20260506182117 47 0.0 0.0 0.00 0.24 0.24 81 1009.1
20260506181617 47 248 3.0 4.0 0.00 0.24 0.24 81 1009.1
20260506181117 47 248 1.0 2.0 0.00 0.24 0.24 82 1009.2
20260506180637 47 0.0 2.0 0.00 0.24 0.24 82 1009.2
20260506180117 47 248 1.0 3.0 0.00 0.24 0.24 83 1009.3
20260506175617 47 270 1.0 3.0 0.00 0.24 0.24 83 1009.4
20260506175117 47 0.0 0.0 0.00 0.24 0.24 86 1009.4
20260506174617 46 0.0 2.0 0.00 0.24 0.24 86 1009.5
20260506174117 46 0.0 1.0 0.00 0.24 0.24 86 1009.3
20260506173617 46 203 2.0 4.0 0.00 0.24 0.24 87 1009.5
20260506173117 45 0.0 0.0 0.00 0.24 0.24 88 1009.6
20260506172617 45 0.0 1.0 0.00 0.24 0.24 87 1009.7
20260506172137 44 180 1.0 2.0 0.00 0.24 0.24 87 1009.8
20260506171617 44 248 1.0 2.0 0.01 0.24 0.24 87 1009.9
20260506171137 44 270 2.0 3.0 0.01 0.24 0.24 87 1009.9
20260506170617 44 248 1.0 2.0 0.01 0.24 0.24 87 1010.0
20260506170117 44 203 1.0 2.0 0.01 0.24 0.24 88 1009.9
20260506165617 44 203 2.0 4.0 0.01 0.24 0.24 88 1010.1
20260506165117 44 270 1.0 3.0 0.02 0.24 0.24 88 1010.1
20260506164617 44 270 1.0 3.0 0.02 0.24 0.24 89 1010.2
20260506164117 44 248 2.0 4.0 0.02 0.24 0.24 89 1010.0
20260506163617 44 248 1.0 4.0 0.02 0.24 0.24 90 1010.1
20260506163116 44 203 2.0 4.0 0.02 0.24 0.24 90 1010.1
20260506162616 44 225 1.0 2.0 0.02 0.24 0.24 90 1010.2
20260506162117 44 248 2.0 3.0 0.02 0.24 0.24 89 1010.3
20260506161617 44 225 3.0 4.0 0.02 0.24 0.24 90 1010.4
20260506161137 44 270 2.0 3.0 0.02 0.24 0.24 90 1010.3
20260506160617 43 203 1.0 3.0 0.02 0.24 0.24 90 1010.4
20260506160117 43 203 2.0 3.0 0.03 0.24 0.24 90 1010.6
20260506155617 43 203 1.0 2.0 0.03 0.24 0.24 90 1010.6
20260506155137 43 225 2.0 4.0 0.02 0.23 0.23 90 1010.6
20260506154616 44 203 1.0 2.0 0.03 0.23 0.23 90 1010.7
20260506154137 44 180 3.0 6.0 0.04 0.23 0.23 90 1010.6
20260506153616 44 203 1.0 3.0 0.04 0.22 0.22 90 1010.7
20260506153116 44 203 1.0 4.0 0.05 0.22 0.22 90 1010.6
20260506152617 44 180 3.0 5.0 0.05 0.22 0.22 90 1010.6
20260506152116 43 248 3.0 5.0 0.06 0.22 0.22 90 1010.7
20260506151616 43 248 3.0 6.0 0.06 0.22 0.22 90 1010.9
20260506151116 43 225 3.0 3.0 0.06 0.21 0.21 89 1010.8
20260506150616 43 248 1.0 2.0 0.06 0.21 0.21 89 1010.8
20260506150116 44 225 3.0 5.0 0.06 0.20 0.20 90 1010.8
20260506145637 43 225 2.0 3.0 0.06 0.20 0.20 90 1010.8
20260506145116 43 225 1.0 3.0 0.06 0.20 0.20 90 1010.9
20260506144616 44 203 3.0 6.0 0.06 0.20 0.20 90 1010.7
20260506144117 44 203 1.0 2.0 0.06 0.19 0.19 90 1010.6
20260506143616 44 225 2.0 4.0 0.06 0.18 0.18 90 1010.6
20260506143116 44 0.0 2.0 0.05 0.17 0.17 90 1010.6
20260506142617 44 0.0 0.0 0.06 0.17 0.17 90 1010.6
20260506142116 44 203 1.0 2.0 0.06 0.17 0.17 90 1010.6
20260506141616 44 158 2.0 4.0 0.05 0.16 0.16 90 1010.7
20260506141116 44 0.0 1.0 0.06 0.16 0.16 89 1010.7
20260506140617 44 248 2.0 4.0 0.05 0.15 0.15 89 1010.7
20260506140116 44 248 3.0 5.0 0.05 0.15 0.15 89 1010.7
20260506135616 44 225 3.0 5.0 0.05 0.14 0.14 89 1010.7
20260506135116 44 270 4.0 6.0 0.05 0.14 0.14 89 1010.7
20260506134616 44 225 3.0 5.0 0.04 0.13 0.13 89 1010.6
20260506134137 44 225 1.0 2.0 0.04 0.13 0.13 89 1010.5
20260506133616 44 225 3.0 6.0 0.04 0.13 0.13 89 1010.5
20260506133116 44 203 1.0 3.0 0.05 0.13 0.13 88 1010.4
20260506132637 44 180 3.0 5.0 0.04 0.12 0.12 88 1010.4
20260506132116 44 180 3.0 5.0 0.03 0.11 0.11 88 1010.5
20260506131616 44 203 2.0 4.0 0.04 0.11 0.11 87 1010.5
20260506131116 44 248 2.0 3.0 0.04 0.10 0.10 87 1010.5
20260506130616 44 225 3.0 4.0 0.04 0.10 0.10 87 1010.4
20260506130136 44 225 1.0 2.0 0.04 0.10 0.10 87 1010.2
20260506125616 44 0.0 1.0 0.04 0.09 0.10 87 1010.3
20260506125116 44 203 1.0 3.0 0.04 0.09 0.09 87 1010.4
20260506124617 44 248 2.0 4.0 0.04 0.09 0.09 86 1010.5
20260506124116 45 0.0 1.0 0.05 0.09 0.09 86 1010.5
20260506123616 45 180 2.0 5.0 0.04 0.09 0.09 86 1010.4
20260506123136 45 0.0 1.0 0.04 0.08 0.08 86 1010.4
20260506122616 45 248 1.0 2.0 0.04 0.08 0.08 85 1010.4
20260506122116 44 225 1.0 4.0 0.04 0.08 0.08 85 1010.3
20260506121616 44 225 1.0 2.0 0.04 0.07 0.07 84 1010.4
20260506121116 44 0.0 1.0 0.03 0.06 0.06 84 1010.5
20260506120616 44 270 2.0 3.0 0.03 0.06 0.06 84 1010.6
20260506120137 45 270 2.0 3.0 0.04 0.06 0.06 85 1010.6
20260506115616 45 248 3.0 4.0 0.03 0.07 0.06 86 1010.5
20260506115116 45 248 4.0 6.0 0.03 0.07 0.06 86 1010.6
20260506114616 45 248 3.0 4.0 0.04 0.07 0.06 85 1010.8
20260506114116 45 225 3.0 5.0 0.03 0.06 0.05 86 1010.8
20260506113636 46 248 5.0 8.0 0.04 0.06 0.05 85 1010.8
20260506113116 46 225 3.0 6.0 0.03 0.06 0.04 86 1010.8
20260506112616 46 248 2.0 4.0 0.03 0.06 0.04 85 1010.8
20260506112116 46 248 2.0 4.0 0.03 0.06 0.04 84 1010.8
20260506111616 46 248 2.0 3.0 0.02 0.05 0.03 84 1010.7
20260506111137 46 248 3.0 5.0 0.02 0.05 0.03 84 1010.7
20260506110615 47 248 3.0 4.0 0.02 0.05 0.03 84 1010.8
20260506110216 47 225 4.0 6.0 0.02 0.04 0.02 83 1010.8
20260506105636 47 248 2.0 3.0 0.02 0.04 0.02 84 1010.8
20260506105116 47 0.0 1.0 0.02 0.04 0.02 82 1010.6
20260506104616 47 270 2.0 4.0 0.02 0.03 0.02 81 1010.4
20260506104116 47 0.0 2.0 0.02 0.03 0.02 80 1010.2
20260506103616 47 248 2.0 3.0 0.01 0.02 0.01 79 1010.2
20260506103136 47 248 1.0 2.0 0.01 0.02 0.01 79 1010.1
20260506102616 47 270 3.0 3.0 0.01 0.02 0.01 80 1010.1
20260506102137 48 248 3.0 5.0 0.01 0.02 0.01 81 1009.9
20260506101615 48 270 2.0 3.0 0.01 0.02 0.01 81 1009.9
20260506101116 48 248 2.0 3.0 0.01 0.02 0.01 81 1010.0
20260506100618 48 248 2.0 3.0 0.01 0.02 0.01 81 1009.9
20260506100117 48 225 3.0 6.0 0.00 0.02 0.00 81 1010.0
20260506095618 48 203 2.0 5.0 0.00 0.02 0.00 81 1009.9
20260506095118 48 203 3.0 6.0 0.00 0.02 0.00 81 1009.9
20260506094617 49 225 3.0 4.0 0.00 0.02 0.00 80 1009.9
20260506094117 49 248 2.0 3.0 0.00 0.02 0.00 80 1010.0
20260506093615 49 225 5.0 7.0 0.00 0.02 0.00 80 1009.9
20260506093117 49 225 1.0 3.0 0.00 0.02 0.00 79 1009.8
20260506092618 49 248 5.0 8.0 0.00 0.02 0.00 79 1009.7
20260506092117 49 248 5.0 9.0 0.00 0.02 0.00 79 1009.7
20260506091617 49 270 6.0 9.0 0.00 0.02 0.00 79 1009.7
20260506091117 49 270 5.0 7.0 0.00 0.02 0.00 79 1009.7
20260506090638 49 225 5.0 8.0 0.00 0.02 0.00 79 1009.6
20260506090138 49 248 3.0 5.0 0.00 0.02 0.00 79 1009.5
20260506085658 49 248 5.0 6.0 0.00 0.02 0.00 79 1009.4
20260506085117 49 248 3.0 6.0 0.00 0.02 0.00 78 1009.4
20260506084617 49 248 1.0 3.0 0.00 0.02 0.00 78 1009.5
20260506084117 49 248 3.0 5.0 0.00 0.02 0.00 78 1009.7
20260506083618 49 248 2.0 4.0 0.00 0.02 0.00 78 1009.7
20260506083117 49 225 5.0 8.0 0.00 0.02 0.00 78 1009.7
20260506082617 49 225 7.0 10.0 0.00 0.02 0.00 78 1009.8
20260506082117 49 270 3.0 5.0 0.00 0.02 0.00 78 1009.8
20260506081617 49 270 4.0 9.0 0.00 0.02 0.00 78 1009.7
20260506081118 50 248 3.0 4.0 0.00 0.02 0.00 78 1009.8
20260506080617 50 248 3.0 5.0 0.00 0.02 0.00 78 1009.6
20260506080117 50 270 3.0 5.0 0.00 0.02 0.00 78 1009.6
20260506073117 50 225 5.0 7.0 0.00 0.02 0.00 78 1009.6
20260506072617 50 225 7.0 12.0 0.00 0.02 0.00 78 1009.7
20260506072117 50 270 6.0 9.0 0.00 0.02 0.00 79 1009.6
20260506071617 50 248 3.0 8.0 0.00 0.02 0.00 79 1009.6
20260506071137 50 270 6.0 12.0 0.00 0.02 0.00 78 1009.6
20260506070618 50 180 4.0 10.0 0.00 0.02 0.00 79 1009.5
20260506070117 50 225 8.0 11.0 0.00 0.02 0.00 78 1009.6
20260506062117 51 248 6.0 10.0 0.00 0.02 0.00 79 1009.2
20260506061617 51 225 4.0 6.0 0.00 0.02 0.00 79 1009.0
20260506061117 51 180 6.0 10.0 0.00 0.02 0.00 79 1008.8
20260506060617 51 248 4.0 6.0 0.00 0.02 0.00 79 1008.8